Location: Moutoa
(40.5000°S, 175.3833°E)
Time: 22:16:00
(UTC+00:00)

Cosmos 1733 Rocket - Pass Details

Date: 11 December 2025
Orbit: 597 x 619 km, 82.5° (Epoch: 12 April)

Event Time Altitude Azimuth Distance (km) Brightness Sun altitude
Exits shadow 12:38:56 42° 103° (ESE) 893 3.9 -26.1°
Drops below altitude 10° 12:42:46 10° 159° (SSE) 2,009 6.6 -26.1°
Sets 12:45:05 0° 165° (SSE) 2,920 7.8 -26.0°
